Stündliche Wetter Cegly

Heute, 26 Januar, Dienstag

Zeit Temperatur Niederschläge Wind Luftdruck Luftfeuchtigkeit
00:00 -3°C° 0 mm 4 m/S 742 mmHg 91%
01:00 -3°C° 0 mm 4 m/S 742 mmHg 91%
02:00 -3°C° 0 mm 4 m/S 743 mmHg 91%
03:00 -3°C° 0 mm 4 m/S 743 mmHg 91%
04:00 -3°C° 0 mm 4 m/S 743 mmHg 91%
05:00 -3°C° 0 mm 4 m/S 743 mmHg 91%
06:00 -4°C° 0 mm 5 m/S 743 mmHg 91%
07:00 -4°C° 0 mm 5 m/S 743 mmHg 93%
08:00 -2°C° 0.1 mm 5 m/S 744 mmHg 93%
09:00 -2°C° 0.1 mm 5 m/S 744 mmHg 92%
10:00 -2°C° 0.1 mm 5 m/S 744 mmHg 91%
11:00 -2°C° 0.1 mm 5 m/S 744 mmHg 87%
12:00 -1°C° 0.1 mm 5 m/S 744 mmHg 83%
13:00 -2°C° 0.1 mm 6 m/S 744 mmHg 80%
14:00 -1°C° 0 mm 5 m/S 744 mmHg 80%
15:00 -1°C° 0 mm 5 m/S 744 mmHg 80%
16:00 -1°C° 0 mm 5 m/S 745 mmHg 81%
17:00 -1°C° 0.1 mm 4 m/S 745 mmHg 84%
18:00 -2°C° 0.1 mm 4 m/S 745 mmHg 87%
19:00 -2°C° 0.1 mm 4 m/S 745 mmHg 91%
20:00 -2°C° 0.1 mm 5 m/S 745 mmHg 91%
21:00 -2°C° 0.1 mm 5 m/S 746 mmHg 92%
22:00 -2°C° 0.1 mm 5 m/S 746 mmHg 93%
23:00 -2°C° 0.1 mm 5 m/S 746 mmHg 92%

Morgen, 27 Januar, Mittwoch

Zeit Temperatur Niederschläge Wind Luftdruck Luftfeuchtigkeit
00:00 -2°C° 0.1 mm 5 m/S 746 mmHg 92%
01:00 -4°C° 0.1 mm 5 m/S 746 mmHg 91%
02:00 -4°C° 0 mm 5 m/S 746 mmHg 91%
03:00 -4°C° 0 mm 5 m/S 746 mmHg 90%
04:00 -4°C° 0 mm 5 m/S 746 mmHg 90%
05:00 -4°C° 0 mm 5 m/S 746 mmHg 90%
06:00 -4°C° 0 mm 5 m/S 747 mmHg 91%
07:00 -4°C° 0 mm 5 m/S 747 mmHg 91%
08:00 -4°C° 0 mm 5 m/S 747 mmHg 89%
09:00 -4°C° 0 mm 5 m/S 747 mmHg 87%
10:00 -2°C° 0 mm 5 m/S 747 mmHg 85%
11:00 -2°C° 0 mm 4 m/S 747 mmHg 84%
12:00 -2°C° 0 mm 4 m/S 747 mmHg 83%
13:00 -1°C° 0 mm 4 m/S 747 mmHg 83%
14:00 -2°C° 0 mm 4 m/S 747 mmHg 85%
15:00 -1°C° 0 mm 3 m/S 746 mmHg 87%
16:00 -2°C° 0 mm 3 m/S 746 mmHg 89%
17:00 -2°C° 0 mm 2 m/S 746 mmHg 88%
18:00 -1°C° 0 mm 2 m/S 746 mmHg 87%
19:00 +1°C° 0 mm 1 m/S 746 mmHg 86%
20:00 +1°C° 0 mm 1 m/S 746 mmHg 85%
21:00 +1°C° 0 mm 1 m/S 746 mmHg 84%
22:00 +1°C° 0 mm 1 m/S 746 mmHg 83%
23:00 -2°C° 0 mm 2 m/S 746 mmHg 84%

übermorgen, 28 Januar, Donnerstag

Zeit Temperatur Niederschläge Wind Luftdruck Luftfeuchtigkeit
00:00 -2°C° 0 mm 2 m/S 746 mmHg 85%
01:00 -2°C° 0 mm 3 m/S 745 mmHg 86%
02:00 -2°C° 0 mm 3 m/S 745 mmHg 86%
03:00 -4°C° 0 mm 4 m/S 744 mmHg 86%
04:00 -4°C° 0 mm 4 m/S 743 mmHg 86%
05:00 -4°C° 0.1 mm 5 m/S 743 mmHg 89%
06:00 -4°C° 0.1 mm 5 m/S 742 mmHg 92%
07:00 -4°C° 0.1 mm 5 m/S 742 mmHg 95%
08:00 -3°C° 0.2 mm 6 m/S 742 mmHg 91%
09:00 -2°C° 0.2 mm 6 m/S 741 mmHg 86%
10:00 -1°C° 0.2 mm 7 m/S 741 mmHg 82%
11:00 -2°C° 0.1 mm 7 m/S 741 mmHg 79%
12:00 -2°C° 0.1 mm 7 m/S 741 mmHg 76%
13:00 -2°C° 0.1 mm 7 m/S 741 mmHg 73%
14:00 -3°C° 0 mm 6 m/S 741 mmHg 74%
15:00 -2°C° 0 mm 5 m/S 740 mmHg 75%
16:00 -3°C° 0 mm 4 m/S 740 mmHg 76%
17:00 -3°C° 0 mm 4 m/S 740 mmHg 78%
18:00 -2°C° 0 mm 3 m/S 740 mmHg 81%
19:00 -4°C° 0 mm 3 m/S 740 mmHg 83%
20:00 -4°C° 0 mm 3 m/S 740 mmHg 83%
21:00 -4°C° 0 mm 3 m/S 740 mmHg 84%
22:00 -4°C° 0 mm 3 m/S 739 mmHg 85%
23:00 -4°C° 0 mm 3 m/S 739 mmHg 84%

29 Januar, Freitag

Zeit Temperatur Niederschläge Wind Luftdruck Luftfeuchtigkeit
00:00 -4°C° 0 mm 3 m/S 739 mmHg 84%
01:00 -4°C° 0 mm 3 m/S 739 mmHg 84%
02:00 -4°C° 0 mm 4 m/S 738 mmHg 84%
03:00 -5°C° 0 mm 4 m/S 738 mmHg 83%
04:00 -5°C° 0 mm 4 m/S 738 mmHg 83%
05:00 -5°C° 0 mm 4 m/S 738 mmHg 83%
06:00 -6°C° 0 mm 5 m/S 738 mmHg 83%
07:00 -6°C° 0 mm 5 m/S 738 mmHg 83%
08:00 -6°C° 0 mm 5 m/S 738 mmHg 82%
09:00 -5°C° 0 mm 5 m/S 737 mmHg 81%
10:00 -5°C° 0 mm 5 m/S 737 mmHg 80%
11:00 -5°C° 0 mm 5 m/S 737 mmHg 80%
12:00 -4°C° 0 mm 5 m/S 737 mmHg 79%
13:00 -4°C° 0 mm 5 m/S 737 mmHg 78%
14:00 -3°C° 0 mm 4 m/S 738 mmHg 80%
15:00 -3°C° 0 mm 4 m/S 738 mmHg 82%
16:00 -2°C° 0 mm 3 m/S 738 mmHg 83%
17:00 -2°C° 0 mm 3 m/S 738 mmHg 86%
18:00 -2°C° 0 mm 3 m/S 738 mmHg 88%
19:00 -2°C° 0 mm 3 m/S 739 mmHg 91%
20:00 -3°C° 0 mm 2 m/S 739 mmHg 92%
21:00 -3°C° 0 mm 2 m/S 739 mmHg 92%
22:00 -3°C° 0 mm 2 m/S 739 mmHg 93%
23:00 -3°C° 0 mm 2 m/S 739 mmHg 94%

30 Januar, Samstag

Zeit Temperatur Niederschläge Wind Luftdruck Luftfeuchtigkeit
00:00 -3°C° 0 mm 2 m/S 739 mmHg 94%
01:00 -3°C° 0 mm 2 m/S 739 mmHg 95%
02:00 -3°C° 0 mm 2 m/S 738 mmHg 95%
03:00 -3°C° 0 mm 2 m/S 738 mmHg 95%
04:00 -3°C° 0 mm 2 m/S 738 mmHg 95%
05:00 -3°C° 0 mm 2 m/S 738 mmHg 95%
06:00 -3°C° 0 mm 2 m/S 738 mmHg 95%
07:00 -4°C° 0 mm 2 m/S 738 mmHg 95%
08:00 -4°C° 0 mm 3 m/S 738 mmHg 90%
09:00 -4°C° 0 mm 3 m/S 738 mmHg 85%
10:00 -4°C° 0 mm 4 m/S 738 mmHg 81%
11:00 -4°C° 0 mm 4 m/S 738 mmHg 78%
12:00 -3°C° 0 mm 4 m/S 738 mmHg 75%
13:00 -3°C° 0 mm 4 m/S 738 mmHg 72%
14:00 -3°C° 0 mm 4 m/S 738 mmHg 74%
15:00 -4°C° 0 mm 3 m/S 738 mmHg 76%
16:00 -4°C° 0 mm 3 m/S 738 mmHg 78%
17:00 -4°C° 0 mm 3 m/S 739 mmHg 78%
18:00 -5°C° 0 mm 3 m/S 739 mmHg 78%
19:00 -5°C° 0 mm 3 m/S 740 mmHg 78%
20:00 -5°C° 0 mm 3 m/S 740 mmHg 78%
21:00 -5°C° 0 mm 3 m/S 740 mmHg 77%
22:00 -5°C° 0 mm 3 m/S 741 mmHg 77%
23:00 -5°C° 0 mm 3 m/S 741 mmHg 78%

31 Januar, Sonntag

Zeit Temperatur Niederschläge Wind Luftdruck Luftfeuchtigkeit
00:00 -6°C° 0 mm 3 m/S 741 mmHg 79%
01:00 -6°C° 0 mm 3 m/S 741 mmHg 81%
02:00 -7°C° 0 mm 4 m/S 741 mmHg 80%
03:00 -7°C° 0 mm 4 m/S 741 mmHg 79%
04:00 -7°C° 0 mm 4 m/S 741 mmHg 78%
05:00 -7°C° 0 mm 4 m/S 741 mmHg 80%
06:00 -7°C° 0 mm 4 m/S 742 mmHg 82%
07:00 -8°C° 0 mm 5 m/S 742 mmHg 84%
08:00 -7°C° 0 mm 5 m/S 742 mmHg 84%
09:00 -7°C° 0 mm 5 m/S 743 mmHg 85%
10:00 -6°C° 0 mm 5 m/S 743 mmHg 86%
11:00 -6°C° 0.1 mm 5 m/S 743 mmHg 85%
12:00 -6°C° 0.1 mm 5 m/S 743 mmHg 84%
13:00 -5°C° 0.1 mm 5 m/S 743 mmHg 83%
14:00 -5°C° 0.1 mm 5 m/S 743 mmHg 85%
15:00 -5°C° 0.1 mm 5 m/S 743 mmHg 87%
16:00 -4°C° 0.1 mm 4 m/S 743 mmHg 89%
17:00 -4°C° 0.1 mm 4 m/S 743 mmHg 90%
18:00 -5°C° 0.1 mm 4 m/S 744 mmHg 91%
19:00 -5°C° 0.1 mm 3 m/S 744 mmHg 92%
20:00 -5°C° 0.1 mm 3 m/S 744 mmHg 93%
21:00 -5°C° 0.1 mm 3 m/S 744 mmHg 93%
22:00 -5°C° 0.1 mm 3 m/S 745 mmHg 93%
23:00 -5°C° 0.1 mm 3 m/S 745 mmHg 93%
Mehr zeigen

Wir brauchen deine Erlaubnis

Meteoprog und unser Service Anbieter werden persönliche Daten aufbewahren, so wie Cookies, Geräte Bezeichnung oder ähnliche Technologien von deinem Gerät und Prozess, so wie Persönliche Daten Inhalte und Werbungen, genauso wie social Media und den Verkehr zu analysieren.

  • Aufbewahrung und/oder Zugang zu deiner Geräte Informationen.

    Cookies, Geräte Bezeichnung oder andere Informationen, können aufbewahrt oder Zugang zu deinem Gerät erhalten, für den Grund, der oben angegeben wird.

  • Personalisierte Werbung und Inhalte, Messungen, Einblick in das Publikum und Produkt Entwicklung.

    Werbungen und Inhalte können personalisiert werden, basierend auf ein Profil. Mehr Daten können besser personalisierte Werbungen und Inhalte hinzufügen. Werbung und Inhalte können gezeigt und gemessen werden. Einblicke über das Publikum, welche die Werbung gesehen haben und den Inhalt, können abgeleitet werden. So wie Daten können genutzt werden, um es zu verbessern oder die Benutzer Erfahrung zu verbessern das System und die Software.

Wenn du “Ich stimme zu” klickst, erlaubst du uns, die Cookies zu benutzen die Geräte Bezeichnung, den Web oder ähnliche Technologien zu benutzen. Deine Settings, können in deinem Gerät bei deinem Browser geändert werden.

Für den bestimmten Zweck, berechtigten Interessen beruhen darauf, mehr als auf den Inhalt. Du kannst mehr darüber in unseren Privaten und Cookie Politik lesen.